Weather History for Livingston, MT

Change the Weather History Date:

Friday, May 24, 2013

  Actual Average Record
Temperature  
Mean Temperature 54 °F 53 °F  
Max Temperature 69 °F 67 °F 86 °F (1988)
Min Temperature 39 °F 39 °F 27 °F (2007)
Degree Days  
Heating Degree Days 11 12  
Month to date heating degree days 368  
Since 1 July heating degree days 7316  
Cooling Degree Days 0 0  
Month to date cooling degree days 0  
Year to date cooling degree days 0  
Growing Degree Days 4 (Base 50)    
Moisture  
Dew Point 29 °F    
Average Humidity 45    
Maximum Humidity 86    
Minimum Humidity 16    
Precipitation  
Precipitation 0.07 in 0.09 in 2.08 in (2011)
Month to date precipitation 1.97  
Year to date precipitation 5.57  
Sea Level Pressure  
Sea Level Pressure 29.87 in    
Wind  
Wind Speed 19 mph (WSW)    
Max Wind Speed 32 mph    
Max Gust Speed 43 mph    
Visibility 10 miles    
Events Rain    
T = Trace of Precipitation, MM = Missing Value Source: NWS Daily Summary

Daily Weather History Graph

Daily Weather History Graph

Search for Another Location

Airport:

Trip Planner

Search our weather history database for the weather conditions in past years. The results will help you decide how hot, cold, wet, or windy it might be!

Date:

Astronomy

May. 24, 2013 Rise Set
Actual Time 5:41 AM MDT 8:56 PM MDT
Civil Twilight 5:05 AM MDT 9:32 PM MDT
Nautical Twilight 4:18 AM MDT 10:20 PM MDT
Astronomical Twilight 3:19 AM MDT 11:19 PM MDT
Moon 8:41 PM MDT (5/24) 5:18 AM MDT (5/24)
Length of Visible Light 16h 27m
Length of Day
15h 15m
Full, 100% of the Moon is Illuminated
May 24
Full
May 24
Full
May 31
Last Quarter
Jun 8
New
Jun 16
First Quarter

Hourly Weather History & Observations

Time (MDT) Temp. Windchill Dew Point Humidity Pressure Visibility Wind Dir Wind Speed Gust Speed Precip Events Conditions
12:53 AM 46.0 °F 39.9 °F 39.0 °F 76% 29.81 in 10.0 mi WSW 13.8 mph - N/A   Overcast
1:06 AM 46.4 °F 41.1 °F 39.2 °F 76% 29.85 in 10.0 mi WSW 11.5 mph - N/A   Overcast
1:26 AM 44.6 °F 35.5 °F 37.4 °F 76% 29.87 in 10.0 mi West 25.3 mph 31.1 mph N/A   Overcast
1:53 AM 39.9 °F 29.5 °F 36.0 °F 86% 29.89 in 7.0 mi WSW 24.2 mph 31.1 mph 0.02 in Rain Light Rain
2:53 AM 41.0 °F 34.3 °F 37.0 °F 86% 29.90 in 9.0 mi West 11.5 mph - 0.05 in Rain Light Rain
3:53 AM 43.0 °F 37.7 °F 37.9 °F 82% 29.85 in 10.0 mi NW 9.2 mph - 0.00 in   Overcast
4:53 AM 43.0 °F 35.7 °F 37.0 °F 80% 29.86 in 10.0 mi NW 15.0 mph - N/A   Overcast
5:53 AM 42.1 °F 31.5 °F 35.1 °F 76% 29.90 in 10.0 mi WSW 28.8 mph 38.0 mph 0.00 in Rain Light Rain
6:53 AM 42.1 °F 32.6 °F 34.0 °F 73% 29.94 in 10.0 mi WSW 23.0 mph 40.3 mph 0.00 in   Mostly Cloudy
7:53 AM 44.1 °F 35.2 °F 35.1 °F 71% 29.94 in 10.0 mi West 23.0 mph 29.9 mph N/A   Clear
8:53 AM 50.0 °F - 34.0 °F 54% 29.92 in 10.0 mi West 19.6 mph - N/A   Clear
9:53 AM 57.0 °F - 30.9 °F 37% 29.91 in 10.0 mi WSW 24.2 mph 32.2 mph N/A   Mostly Cloudy
10:53 AM 59.0 °F - 28.0 °F 31% 29.90 in 10.0 mi SW 18.4 mph 31.1 mph N/A   Mostly Cloudy
11:53 AM 61.0 °F - 24.1 °F 24% 29.88 in 10.0 mi SW 26.5 mph 35.7 mph N/A   Clear
12:53 PM 63.0 °F - 21.9 °F 21% 29.87 in 10.0 mi WSW 28.8 mph 40.3 mph N/A   Clear
1:53 PM 64.9 °F - 21.9 °F 19% 29.87 in 10.0 mi SW 32.2 mph 39.1 mph N/A   Clear
2:53 PM 66.9 °F - 19.9 °F 17% 29.85 in 10.0 mi WSW 27.6 mph 39.1 mph N/A   Clear
3:53 PM 68.0 °F - 19.9 °F 16% 29.83 in 10.0 mi SW 31.1 mph 42.6 mph N/A   Clear
4:53 PM 69.1 °F - 21.0 °F 16% 29.82 in 10.0 mi WSW 26.5 mph 36.8 mph N/A   Clear
5:53 PM 68.0 °F - 19.9 °F 16% 29.83 in 10.0 mi WSW 23.0 mph 29.9 mph N/A   Clear
6:53 PM 66.9 °F - 19.0 °F 16% 29.83 in 10.0 mi WSW 25.3 mph 32.2 mph N/A   Clear
7:53 PM 66.0 °F - 19.9 °F 17% 29.83 in 10.0 mi SW 17.3 mph 27.6 mph N/A   Clear
8:53 PM 62.1 °F - 19.9 °F 20% 29.85 in 10.0 mi SSW 12.7 mph 18.4 mph N/A   Clear
9:53 PM 57.9 °F - 21.9 °F 25% 29.86 in 10.0 mi SW 5.8 mph - N/A   Clear
10:53 PM 53.1 °F - 26.1 °F 35% 29.88 in 10.0 mi West 6.9 mph - N/A   Clear
11:53 PM 54.0 °F - 26.1 °F 34% 29.86 in 10.0 mi Calm Calm - N/A   Clear